COSMOS 970

Satellite information

Favourite Embed

Satellite Type and Status

PAYLOADIN ORBIT

Key statistics

Satellite COSMOS 970 at a glance.

Uptime

17303

Days in orbit

Revolutions

≈ 13.6

Per day

Orbit

LEO

Low Earth Orbit

Inclination

65.9

Latest

Satellite identification and parameters

Extended collection of information and parameters for COSMOS 970.

Object identification

Identified? True

Debris? False

Object name: COSMOS 970

International designator: 1977-121A

Object number (NORAD): 10531

Object ID (CCSDS): 10531

Country: COMMONWEALTH OF INDEPENDENT STATES (CIS)

Current information (Y/N): Y

RCS size: LARGE

Orbital parameters

Period: 105.894 minutes

Inclination: 65.8542 deg

SMA: 7414.359 km

Apoapsis: 1139.405 km

Periapsis: 933.043 km

RAAN: 61.0696 deg

Eccentricy: 0.0139164

Argument of periapsis: 31.6067 deg

Mean anomaly: 329.3252 deg

Mean motion: 13.59854178 rev/day

Mean motion (dot): -0.00000043 rev/day2

B* drag term: 0.000042674 1/REarth

Two-line elements (TLE)

Creation date: May 6, 2025, 3:54 a.m.

Reference frame: TEME

Reference center: EARTH

Epoch: May 5, 2025, 7:30 p.m. UTC

TLE line 0: 0 COSMOS 970

TLE line 1: 1 10531U 77121A 25125.81279272 -.00000043 00000-0 42674-4 0 9996

TLE line 2: 2 10531 65.8542 61.0696 0139164 31.6067 329.3252 13.59854178744054

Live tracking on map

Real-time ground track for satellite COSMOS 970.

In-orbit conjunctions

A list of the most updated potential collisions computed for object COSMOS 970.

Target Orbit TCA Probability of collision Miss distance Type
THORAD AGENA D DEB SSO 2024-11-20 11:58:21 0.001745355 68.0 (m) DEBRIS
DELTA 1 DEB SSO 2024-09-12 10:48:04 0.001237924 92.0 (m) DEBRIS

Associated space launch

Second generation ASAT satellite

COSMOS 970 was lifted into orbit during the mission ‘Tsiklon-2 | IS-A 8’, on board a Tsiklon-2 space rocket.

The launch took place on Dec. 21, 1977, 10:35 a.m. from 90.

For more information about the launch, click the button.

Launch to space Tsiklon-2 | IS-A 8
Tsiklon-2 | IS-A 8

Agency: N/A

Status: Launch Successful

Launch date: Dec. 21, 1977, 10:35 a.m. UTC

Rocket: Tsiklon-2

Launch pad: 90

Location: Baikonur Cosmodrome, Republic of Kazakhstan

...

Latest news about this satellite

There are no fresh news available about this satellite. Check back as we update our databases every day.


Newsletter sign-up

Weekly statistics, charts and insights to help you stay on top of the space industry.